STARLINK-1399 (45683 NORAD) Tracking and Keplerian Element Data

This shows tracking and keplerian element data for the satellite.

Feedback or suggestion? Click here.




ElementValue
Catalog45683
NameSTARLINK-1399
Epoch Orbit568
Epoch Day186.50001157
Epoch Year2020
RAAN19.9846
Inclination52.999
Eccentricity0.0001009
Argument of Perigee81.6419
Mean Anonmoly260.1289
Mean Motion15.62708619
Decay Rate0.00048402
L11 45683U 20035AC 20186.50001157 .00048402 00000-0 53220-3 0 9995
L22 45683 52.9990 19.9846 0001009 81.6419 260.1289 15.62708619 5680

Live tracking and technical data element details for STARLINK-1399 (NORAD 45683). STARLINK-1399 can be tracked NOW for your location showing map with azimuth and elevation plus other details from your city location.

Track the satellite on the map from your city or location and see movement details for azimuth, elevation, latitude, longitude, range, height, and movement on the map or in text.







IsCatalogInMostPopularTable: catalog: 45683, numindb: 4
Update: records affected: 1



GetName: 45683 STARLINK-1399

Hit Count: updated at: Sun, 05 Jul 2020 16:52:14 GMT